TimePST,TemperatureF,Dew PointF,Humidity,Sea Level PressureIn,VisibilityMPH,Wind Direction,Wind SpeedMPH,Gust SpeedMPH,PrecipitationIn,Events,Conditions,WindDirDegrees,DateUTC
12:53 AM,54.0,48.9,83,29.87,6.0,SSW,18.4,-,0.02,,Overcast,200,2012-12-12 08:53:00
1:09 AM,53.6,50.0,88,29.87,7.0,SSW,17.3,-,0.00,Rain,Light Rain,200,2012-12-12 09:09:00
1:53 AM,55.0,50.0,83,29.86,9.0,South,11.5,-,0.02,Rain,Light Rain,190,2012-12-12 09:53:00
2:03 AM,55.4,50.0,82,29.86,7.0,South,13.8,-,0.00,Rain,Light Rain,180,2012-12-12 10:03:00
2:53 AM,54.0,50.0,86,29.86,8.0,South,11.5,-,0.02,Rain,Light Rain,190,2012-12-12 10:53:00
3:30 AM,55.4,50.0,82,29.85,9.0,WNW,15.0,-,0.00,,Overcast,290,2012-12-12 11:30:00
3:53 AM,54.0,48.9,83,29.85,10.0,WNW,10.4,-,0.00,,Overcast,290,2012-12-12 11:53:00
4:53 AM,53.1,48.0,83,29.86,10.0,WNW,13.8,-,N/A,,Mostly Cloudy,290,2012-12-12 12:53:00
5:53 AM,52.0,45.0,77,29.86,8.0,WNW,6.9,-,0.02,Rain,Light Rain,300,2012-12-12 13:53:00
6:53 AM,53.1,43.0,69,29.88,10.0,WNW,11.5,-,0.00,,Overcast,290,2012-12-12 14:53:00
7:53 AM,50.0,43.0,77,29.89,10.0,Calm,Calm,-,N/A,,Partly Cloudy,0,2012-12-12 15:53:00
8:53 AM,54.0,42.1,64,29.91,10.0,NW,3.5,-,N/A,,Mostly Cloudy,310,2012-12-12 16:53:00
9:53 AM,55.0,42.1,62,29.92,10.0,West,9.2,17.3,N/A,,Mostly Cloudy,280,2012-12-12 17:53:00
10:53 AM,55.9,41.0,57,29.92,10.0,West,11.5,-,N/A,,Partly Cloudy,280,2012-12-12 18:53:00
11:53 AM,57.0,39.9,53,29.90,10.0,West,15.0,-,N/A,,Partly Cloudy,280,2012-12-12 19:53:00
12:53 PM,57.0,41.0,55,29.89,10.0,West,12.7,-,N/A,,Mostly Cloudy,270,2012-12-12 20:53:00
1:53 PM,57.0,39.0,51,29.88,10.0,West,12.7,-,N/A,,Scattered Clouds,270,2012-12-12 21:53:00
2:53 PM,57.0,41.0,55,29.88,10.0,West,15.0,-,N/A,,Scattered Clouds,280,2012-12-12 22:53:00
3:53 PM,55.0,39.9,57,29.88,10.0,West,11.5,-,N/A,,Scattered Clouds,270,2012-12-12 23:53:00
4:53 PM,54.0,39.9,59,29.87,10.0,West,12.7,-,N/A,,Scattered Clouds,270,2012-12-13 00:53:00
5:53 PM,53.1,41.0,64,29.88,10.0,West,17.3,-,N/A,,Scattered Clouds,280,2012-12-13 01:53:00
6:53 PM,52.0,39.9,63,29.89,10.0,NNW,6.9,-,N/A,,Partly Cloudy,330,2012-12-13 02:53:00
7:53 PM,46.9,39.0,74,29.89,10.0,NNE,4.6,-,N/A,,Partly Cloudy,30,2012-12-13 03:53:00
8:53 PM,46.9,39.9,77,29.90,10.0,Calm,Calm,-,N/A,,Partly Cloudy,0,2012-12-13 04:53:00
9:53 PM,46.0,39.9,79,29.91,10.0,Calm,Calm,-,N/A,,Partly Cloudy,0,2012-12-13 05:53:00
10:53 PM,44.1,39.0,82,29.91,10.0,ENE,4.6,-,N/A,,Partly Cloudy,60,2012-12-13 06:53:00
11:53 PM,44.1,39.0,82,29.92,10.0,Calm,Calm,-,N/A,,Partly Cloudy,0,2012-12-13 07:53:00